Location: ??????????
(48.5701°N, 37.7703°E)
Time: 18:34:12
(UTC+00:00)

CZ-2C R/B - Pass Details

Date: 14 July 2020
Orbit: 503 x 567 km, 97.7° (Epoch: 11 August)

Event Time Altitude Azimuth Distance (km) Brightness Sun altitude
Rises 00:34:58 0° 18° (NNE) 2,779 7.8 -9.1°
Reaches altitude 10° 00:37:12 10° 25° (NNE) 1,877 6.9 -8.9°
Maximum altitude 00:41:07 45° 99° (E) 782 3.9 -8.4°
Drops below altitude 10° 00:44:59 10° 172° (S) 1,852 5.1 -8.0°
Enters shadow 00:47:00 - 179° (S) 2,665 5.9 -7.8°
